Location: Oberkirch
(48.5323°N, 8.0787°E)
Time: 08:21:22
(UTC+00:00)

CUBEBUG 2 - Pass Details

Date: 16 March 2026
Orbit: 548 x 627 km, 97.9° (Epoch: 18 April)

Event Time Altitude Azimuth Distance (km) Brightness Sun altitude
Rises 02:03:41 0° 12° (NNE) 2,897 ? -33.6°
Reaches altitude 10° 02:05:52 10° 11° (N) 1,995 ? -33.3°
Enters shadow 02:07:16 20° 10° (N) 1,439 ? -33.2°
